When you browse on this site, cookies collect data to enhance your experience and personalize the content and advertising you see.
Visit our Privacy Policy to learn more. By continuing to use the site, you agree to this use of cookies and data.
  • în România
  • Lista ţărilor
  • Pe 7 zile
  • Temperatura apei
  • Hartă satelitară
  • Meteo pe hartă
  • Widget-uri
  • user-avatar
    Intrare

    Meteo pe oră la Portland

    Astăzi, 23 Februarie, Sâmbătă

    Timp Temperatura Precipitaţii Vânt Presiune Umiditate
    00:00 +2°C° 0 mm 0 m/s 762 mmHg 94%
    01:00 +2°C° 0 mm 0 m/s 762 mmHg 95%
    02:00 +2°C° 0 mm 0 m/s 762 mmHg 94%
    03:00 +2°C° 0 mm 0 m/s 763 mmHg 94%
    04:00 +2°C° 0 mm 0 m/s 763 mmHg 93%
    05:00 +2°C° 0 mm 0 m/s 763 mmHg 93%
    06:00 +1°C° 0 mm 0 m/s 763 mmHg 92%
    07:00 +1°C° 0 mm 0 m/s 763 mmHg 92%
    08:00 +4°C° 0.1 mm 1 m/s 764 mmHg 88%
    09:00 +5°C° 0.1 mm 1 m/s 764 mmHg 85%
    10:00 +6°C° 0.1 mm 1 m/s 764 mmHg 81%
    11:00 +7°C° 0.3 mm 1 m/s 763 mmHg 77%
    12:00 +7°C° 0.3 mm 2 m/s 763 mmHg 74%
    13:00 +8°C° 0.3 mm 2 m/s 763 mmHg 70%
    14:00 +8°C° 0.4 mm 2 m/s 763 mmHg 71%
    15:00 +8°C° 0.4 mm 2 m/s 763 mmHg 73%
    16:00 +8°C° 0.4 mm 2 m/s 763 mmHg 74%
    17:00 +7°C° 0.3 mm 2 m/s 763 mmHg 77%
    18:00 +6°C° 0.3 mm 2 m/s 763 mmHg 80%
    19:00 +6°C° 0.3 mm 1 m/s 763 mmHg 83%
    20:00 +5°C° 0.1 mm 1 m/s 763 mmHg 85%
    21:00 +5°C° 0.1 mm 1 m/s 763 mmHg 87%
    22:00 +4°C° 0.1 mm 1 m/s 763 mmHg 89%
    23:00 +4°C° 1.4 mm 1 m/s 762 mmHg 89%

    Mâine, 24 Februarie, Duminică

    Timp Temperatura Precipitaţii Vânt Presiune Umiditate
    00:00 +4°C° 1.4 mm 1 m/s 762 mmHg 89%
    01:00 +5°C° 1.4 mm 1 m/s 761 mmHg 89%
    02:00 +4°C° 1.5 mm 1 m/s 761 mmHg 89%
    03:00 +4°C° 1.5 mm 1 m/s 760 mmHg 88%
    04:00 +4°C° 1.5 mm 1 m/s 760 mmHg 88%
    05:00 +4°C° 0.7 mm 1 m/s 759 mmHg 89%
    06:00 +4°C° 0.7 mm 1 m/s 759 mmHg 91%
    07:00 +4°C° 0.7 mm 1 m/s 759 mmHg 92%
    08:00 +4°C° 0.1 mm 1 m/s 759 mmHg 90%
    09:00 +5°C° 0.1 mm 1 m/s 759 mmHg 89%
    10:00 +5°C° 0.1 mm 1 m/s 759 mmHg 87%
    11:00 +6°C° 0.1 mm 1 m/s 759 mmHg 85%
    12:00 +6°C° 0.1 mm 1 m/s 759 mmHg 82%
    13:00 +7°C° 0.1 mm 1 m/s 759 mmHg 80%
    14:00 +7°C° 0.2 mm 1 m/s 759 mmHg 81%
    15:00 +7°C° 0.2 mm 1 m/s 759 mmHg 83%
    16:00 +7°C° 0.2 mm 1 m/s 758 mmHg 84%
    17:00 +6°C° 0.4 mm 1 m/s 759 mmHg 86%
    18:00 +6°C° 0.4 mm 1 m/s 759 mmHg 88%
    19:00 +5°C° 0.4 mm 1 m/s 759 mmHg 89%
    20:00 +5°C° 0.3 mm 1 m/s 759 mmHg 89%
    21:00 +4°C° 0.3 mm 1 m/s 759 mmHg 88%
    22:00 +4°C° 0.3 mm 1 m/s 758 mmHg 88%
    23:00 +3°C° 0.2 mm 2 m/s 758 mmHg 86%

    Poimâine, 25 Februarie, Luni

    Timp Temperatura Precipitaţii Vânt Presiune Umiditate
    00:00 +2°C° 0.2 mm 2 m/s 758 mmHg 85%
    01:00 +2°C° 0.2 mm 2 m/s 757 mmHg 83%
    02:00 +2°C° 0.3 mm 2 m/s 757 mmHg 84%
    03:00 +1°C° 0.3 mm 3 m/s 756 mmHg 84%
    04:00 0°C° 0.3 mm 3 m/s 755 mmHg 84%
    05:00 0°C° 0.6 mm 3 m/s 755 mmHg 85%
    06:00 -1°C° 0.6 mm 4 m/s 754 mmHg 86%
    07:00 -1°C° 0.6 mm 4 m/s 753 mmHg 87%
    08:00 -1°C° 0.4 mm 4 m/s 753 mmHg 86%
    09:00 0°C° 0.4 mm 3 m/s 753 mmHg 86%
    10:00 +1°C° 0.4 mm 3 m/s 753 mmHg 85%
    11:00 +1°C° 0.2 mm 3 m/s 754 mmHg 83%
    12:00 +2°C° 0.2 mm 3 m/s 754 mmHg 82%
    13:00 +3°C° 0.2 mm 2 m/s 754 mmHg 80%
    14:00 +3°C° 0.1 mm 2 m/s 754 mmHg 80%
    15:00 +3°C° 0.1 mm 2 m/s 754 mmHg 81%
    16:00 +4°C° 0.1 mm 1 m/s 754 mmHg 81%
    17:00 +4°C° 0.1 mm 1 m/s 754 mmHg 84%
    18:00 +3°C° 0.1 mm 1 m/s 755 mmHg 87%
    19:00 +2°C° 0.1 mm 0 m/s 755 mmHg 90%
    20:00 +2°C° 0.1 mm 1 m/s 756 mmHg 91%
    21:00 +2°C° 0.1 mm 1 m/s 757 mmHg 93%
    22:00 +2°C° 0.1 mm 1 m/s 757 mmHg 94%
    23:00 +2°C° 0.1 mm 1 m/s 758 mmHg 94%

    26 Februarie, Marţi

    Timp Temperatura Precipitaţii Vânt Presiune Umiditate
    00:00 +2°C° 0.1 mm 1 m/s 758 mmHg 94%
    01:00 +1°C° 0.1 mm 1 m/s 758 mmHg 93%
    02:00 +1°C° 0.1 mm 1 m/s 759 mmHg 93%
    03:00 +1°C° 0.1 mm 1 m/s 759 mmHg 93%
    04:00 +1°C° 0.1 mm 1 m/s 760 mmHg 92%
    05:00 +1°C° 0 mm 1 m/s 760 mmHg 92%
    06:00 0°C° 0 mm 1 m/s 760 mmHg 92%
    07:00 0°C° 0 mm 1 m/s 761 mmHg 92%
    08:00 +1°C° 0 mm 1 m/s 761 mmHg 87%
    09:00 +3°C° 0 mm 1 m/s 761 mmHg 82%
    10:00 +3°C° 0 mm 2 m/s 761 mmHg 78%
    11:00 +4°C° 0 mm 2 m/s 761 mmHg 73%
    12:00 +4°C° 0 mm 3 m/s 761 mmHg 69%
    13:00 +5°C° 0 mm 4 m/s 761 mmHg 64%
    14:00 +5°C° 0 mm 4 m/s 761 mmHg 64%
    15:00 +3°C° 0 mm 5 m/s 761 mmHg 64%
    16:00 +3°C° 0 mm 5 m/s 761 mmHg 63%
    17:00 +1°C° 0 mm 6 m/s 761 mmHg 64%
    18:00 -1°C° 0 mm 6 m/s 761 mmHg 64%
    19:00 -2°C° 0 mm 6 m/s 761 mmHg 64%
    20:00 -3°C° 0 mm 6 m/s 761 mmHg 63%
    21:00 -3°C° 0 mm 6 m/s 761 mmHg 61%
    22:00 -3°C° 0 mm 6 m/s 761 mmHg 59%
    23:00 -3°C° 0 mm 6 m/s 760 mmHg 59%

    27 Februarie, Miercuri

    Timp Temperatura Precipitaţii Vânt Presiune Umiditate
    00:00 -2°C° 0 mm 5 m/s 760 mmHg 59%
    01:00 -2°C° 0 mm 5 m/s 759 mmHg 59%
    02:00 -2°C° 0.1 mm 5 m/s 759 mmHg 61%
    03:00 -2°C° 0.1 mm 4 m/s 759 mmHg 63%
    04:00 -2°C° 0.1 mm 4 m/s 758 mmHg 65%
    05:00 -1°C° 0.1 mm 3 m/s 758 mmHg 67%
    06:00 -1°C° 0.1 mm 3 m/s 759 mmHg 69%
    07:00 -1°C° 0.1 mm 3 m/s 759 mmHg 71%
    08:00 +1°C° 0.1 mm 2 m/s 759 mmHg 70%
    09:00 +1°C° 0.1 mm 2 m/s 760 mmHg 68%
    10:00 +2°C° 0.1 mm 2 m/s 760 mmHg 66%
    11:00 +3°C° 0 mm 2 m/s 760 mmHg 64%
    12:00 +4°C° 0 mm 2 m/s 760 mmHg 63%
    13:00 +5°C° 0 mm 2 m/s 760 mmHg 62%
    14:00 +4°C° 0.3 mm 2 m/s 760 mmHg 67%
    15:00 +4°C° 0.3 mm 2 m/s 759 mmHg 73%
    16:00 +3°C° 0.3 mm 2 m/s 759 mmHg 79%
    17:00 +2°C° 0.2 mm 2 m/s 759 mmHg 80%
    18:00 +2°C° 0.2 mm 2 m/s 759 mmHg 82%
    19:00 +1°C° 0.2 mm 2 m/s 760 mmHg 84%
    20:00 +1°C° 0.2 mm 2 m/s 760 mmHg 84%
    21:00 +1°C° 0.2 mm 2 m/s 760 mmHg 85%
    22:00 +1°C° 0.2 mm 2 m/s 760 mmHg 85%
    23:00 +2°C° 0.4 mm 1 m/s 760 mmHg 87%

    28 Februarie, Joi

    Timp Temperatura Precipitaţii Vânt Presiune Umiditate
    00:00 +2°C° 0.4 mm 1 m/s 760 mmHg 89%
    01:00 +2°C° 0.4 mm 1 m/s 761 mmHg 92%
    02:00 +2°C° 0.1 mm 1 m/s 761 mmHg 93%
    03:00 +1°C° 0.1 mm 2 m/s 761 mmHg 94%
    04:00 +1°C° 0.1 mm 2 m/s 761 mmHg 96%
    05:00 +1°C° 0.4 mm 2 m/s 761 mmHg 95%
    06:00 -1°C° 0.4 mm 2 m/s 761 mmHg 95%
    07:00 -1°C° 0.4 mm 2 m/s 761 mmHg 95%
    08:00 +1°C° 0.2 mm 2 m/s 762 mmHg 94%
    09:00 +1°C° 0.2 mm 3 m/s 762 mmHg 92%
    10:00 +1°C° 0.2 mm 3 m/s 762 mmHg 91%
    11:00 +2°C° 0.3 mm 3 m/s 762 mmHg 89%
    12:00 +3°C° 0.3 mm 3 m/s 763 mmHg 88%
    13:00 +3°C° 0.3 mm 3 m/s 763 mmHg 87%
    14:00 +4°C° 0.3 mm 3 m/s 763 mmHg 86%
    15:00 +4°C° 0.3 mm 3 m/s 763 mmHg 85%
    16:00 +4°C° 0.3 mm 3 m/s 763 mmHg 84%
    17:00 +4°C° 0.1 mm 2 m/s 764 mmHg 87%
    18:00 +3°C° 0.1 mm 2 m/s 765 mmHg 91%
    19:00 +4°C° 0.1 mm 1 m/s 765 mmHg 94%
    20:00 +3°C° 0 mm 1 m/s 766 mmHg 94%
    21:00 +3°C° 0 mm 1 m/s 766 mmHg 94%
    22:00 +3°C° 0 mm 1 m/s 767 mmHg 94%
    23:00 +2°C° 0 mm 1 m/s 767 mmHg 94%
    Arată mai mult